Regional Weather Roundup
Issued by NWS

Home | Current Version | Previous Version | Graphics & Text | Print | Product List | Glossary Off
Versions: 1 2 3 4 5 6 7 8 9 10 11 12 13 14 15 16 17 18 19 20 21 22 23 24 25 26 27 28 29 30 31 32 33 34 35 36 37 38 39 40 41 42 43 44 45 46 47 48 49 50

523
ASUS43 KDMX 201106
RWRIA

WEATHER ROUNDUP FOR IOWA
NATIONAL WEATHER SERVICE DES MOINES IA
600 AM CDT THU JUL 20 2017

NOTE: "FAIR" INDICATES FEW OR NO CLOUDS BELOW 12,000 FEET WITH NO
SIGNIFICANT WEATHER AND/OR OBSTRUCTIONS TO VISIBILITY.

* - THESE STATIONS ARE NOT NWS STATIONS...THUS NOT UNDER NWS
QUALITY CONTROL.  THEY ALSO DO NOT REPORT WEATHER SUCH
AS PRECIPITATION OR FOG.

IAZ001>003-012>014-020>022-031>034-043>046-201200-
   NORTHWEST IOWA

CITY           SKY/WX    TMP DP  RH WIND       PRES   REMARKS
CARROLL *      PTCLDY    75  72  88 W5        29.94R
CHEROKEE *     CLOUDY    75  74  95 CALM      29.95R
DENISON *      PTCLDY    75  72  88 N7        29.96R
ORANGE CITY *  CLOUDY    72  68  88 N5        29.98R
SHELDON *      CLOUDY    68  64  88 CALM      29.96R
SIOUX CITY     CLOUDY    79  75  87 NW7       29.93R HX  83
SPENCER        CLOUDY    70  67  90 N6        29.96R
STORM LAKE *   CLOUDY    75  73  94 N5        29.96R
$$

IAZ055>058-069>071-079>083-090>094-201200-
   SOUTHWEST IOWA

CITY           SKY/WX    TMP DP  RH WIND       PRES   REMARKS
ATLANTIC *     PTCLDY    75  72  88 S8        29.95F
AUDUBON *      PTCLDY    75  72  88 S8        29.95S
CLARINDA *     CLEAR     73  72  94 CALM      30.01R
COUNCIL BLFS * PTCLDY    81  72  74 SW14      29.95F HX  84
CRESTON *      PTCLDY    75  72  88 SW6       30.01R
HARLAN  *      PTCLDY    73  73 100 S7        29.97S
LAMONI         PTCLDY    75  72  90 S12       29.99S
RED OAK *      CLEAR     73  72  94 CALM      29.98S
SHENANDOAH *   PTCLDY    73  72  94 CALM      29.98S
$$

IAZ047>049-059>061-072>074-084-201200-
   CENTRAL IOWA

CITY           SKY/WX    TMP DP  RH WIND       PRES   REMARKS
AMES           PTCLDY    77  74  90 MISG      29.92R
ANKENY *       CLEAR     81  72  74 SW12G17   29.94F HX  84
BOONE *        CLOUDY    79  72  78 SW9       29.93R HX  82
CHARITON *     CLOUDY    79  72  78 SW10      29.97R HX  82
DES MOINES     MOCLDY    81  71  71 SW9       29.94R HX  85
GRINNELL*      PTCLDY    77  71  81 SW8       29.96S
KNOXVILLE *    MOCLDY    81  70  69 W8        29.96R HX  84
MARSHALLTOWN   CLOUDY    77  74  90 SW6       29.92F
NEWTON *       PTCLDY    77  72  83 SW8       29.95S
PELLA *        PTCLDY    81  70  69 SW7       29.97R HX  84
PERRY *          N/A     78  73  83 SW8       29.92S HX  81
$$

IAZ004>006-015-016-023>025-035-036-201200-
   NORTH CENTRAL IOWA

CITY           SKY/WX    TMP DP  RH WIND       PRES   REMARKS
ALGONA *       CLOUDY    72  72 100 NE6       29.95R
ESTHERVILLE    PTCLDY    67  67 100 N7        29.96R
FORT DODGE *   PTCLDY    75  72  88 SW5       29.94R
MASON CITY     CLOUDY    74  70  87 N5        29.96R
FOREST CITY *  CLOUDY    72  70  94 CALM      29.95S
WEBSTER CITY * PTCLDY    73  72  94 CALM      29.92R
IOWA FALLS *     N/A     73  71  96 S5        29.94S FOG
$$

IAZ007>011-017>019-026>030-037>042-050>054-066-201200-
   NORTHEAST IOWA

CITY           SKY/WX    TMP DP  RH WIND       PRES   REMARKS
CEDAR RAPIDS   CLOUDY    75  75 100 SW5       29.94R
CHARLES CITY * CLOUDY    75  75 100 SE8       29.96S
CLINTON *      CLOUDY    74  71  91 S9        29.97R
DECORAH *      CLOUDY    68  66  94 SE9G18    29.99R
DUBUQUE        RAIN      67  66  97 E12       30.03F FOG
MONTICELLO *   CLOUDY    72  68  88 NE8G28    29.99R
OELWEIN *      MOCLDY    73  73 100 E9        29.98R FOG
WATERLOO       CLEAR     75  72  90 CALM      29.92R
$$

IAZ064-065-067-068-078-201200-
   EAST CENTRAL IOWA

CITY           SKY/WX    TMP DP  RH WIND       PRES   REMARKS
DAVENPORT      CLOUDY    78  71  79 SW10      29.97R HX  80
IOWA CITY      CLOUDY    80  74  81 SW5       29.96R HX  85
MT. PLEASANT * PTCLDY    77  70  77 SW7       29.98S
MUSCATINE *    CLOUDY    81  72  74 SW10      29.96R HX  84
QUAD CITIES    CLOUDY    79  71  76 SW12      29.95R HX  82
$$

IAZ062-063-075>077-085>089-095>099-201200-
   SOUTHEAST IOWA

CITY           SKY/WX    TMP DP  RH WIND       PRES   REMARKS
BURLINGTON     CLOUDY    78  73  84 SW7       29.98R HX  81
FAIRFIELD *    PTCLDY    79  72  78 SW7       29.97R HX  82
FORT MADISON * MOCLDY    79  72  78 SW7       30.00R HX  82
KEOKUK *       CLOUDY    77  72  83 SW7       29.99R
OSKALOOSA *    CLOUDY    79  71  76 SW7       29.97R HX  82
CENTERVILLE *    N/A     79  72  78 SW10G16   30.01R HX  82
OTTUMWA        CLOUDY    80  72  76 SW8       29.95S HX  84
WASHINGTON *   CLOUDY    79  73  83 SW10      29.97R HX  82
$$

ABBREVIATIONS USED IN REMARKS
   TC - TEMPERATURES IN CELSIUS
  WCI - WIND CHILL INDEX
   HX - HEAT INDEX
  VSB - VISIBILITY
$$





USA.gov is the U.S. government's official web portal to all federal, state and local government web resources and services.